Regional Weather Roundup
Issued by NWS

Home | Current Version | Previous Version | Graphics & Text | Print | Product List | Glossary On
Versions: 1 2 3 4 5 6 7 8 9 10 11 12 13 14 15 16 17 18 19 20 21 22 23 24 25 26 27 28 29 30 31 32 33 34 35 36 37 38 39 40 41 42 43 44 45 46 47 48 49 50
000
ASUS45 KTFX 132310
RWRMT
MONTANA REGIONAL WEATHER ROUNDUP
NATIONAL WEATHER SERVICE GREAT FALLS MT
400 PM MST SAT FEB 13 2016

NOTE: "FAIR" INDICATES FEW OR NO CLOUDS BELOW 12000 FEET WITH NO
SIGNIFICANT WEATHER AND/OR OBSTRUCTIONS TO VISIBILITY.

MTZ001>007-043-140000-
WEST OF THE DIVIDE

CITY           SKY/WX    TMP DP  RH WIND       PRES   REMARKS
KALISPELL      LGT RAIN  37  33  85 SE5       30.10F
MISSOULA       CLOUDY    44  29  55 W7        30.17F
BUTTE          MOSUNNY   37  18  46 NW15G24   30.11S WCI  28
MULLAN PASS    LGT SNOW  26  24  92 VRB7      30.10S FOG     WCI  18
ANACONDA         N/A     39  19  45 W12G25    30.12F WCI  32
DEER LODGE       N/A     41  23  48 NW8       30.13F
HAMILTON         N/A     45  21  39 SW14G20   30.18R
$$

MTZ008-052>055-140000-
SOUTHWEST MONTANA

CITY           SKY/WX    TMP DP  RH WIND       PRES   REMARKS
BOZEMAN        SUNNY     40  24  53 W8        30.10R
DILLON         SUNNY     40  18  41 W20       30.13R
ENNIS          CLOUDY    41  14  33 NW7G13    30.18R
TWIN BRIDGES     N/A     42  17  36 SW12      30.11R
$$

MTZ009-010-012-014-046-048-049-054-140000-
EAST SLOPES AND CENTRAL MONTANA

CITY           SKY/WX    TMP DP  RH WIND       PRES   REMARKS
CUT BANK       SUNNY     45  21  38 W29G36    29.94R
GREAT FALLS    SUNNY     47  18  31 W26G32    29.97R
MALMSTROM AFB  SUNNY     48  19  30 W26G35    29.98R
HELENA         CLOUDY    44  22  41 W17G28    30.07R
CHOTEAU          N/A     45  18  33 W22G38    29.97R
$$

MTZ011-013-016-021-045-047-050-051-140000-
NORTH CENTRAL MONTANA

CITY           SKY/WX    TMP DP  RH WIND       PRES   REMARKS
HAVRE          PTSUNNY   47  30  51 NW14G26   29.92R
LEWISTOWN      PTSUNNY   38  31  76 W10G21    29.97S WCI  31
N BAR RANCH    LGT SNOW  34  32  93 NW26G37   29.96R WCI  21
CHINOOK          N/A     46  30  53 W20G26    29.90R
$$

MTZ017>020-022>027-061-062-140000-
NORTHEAST MONTANA

CITY           SKY/WX    TMP DP  RH WIND       PRES   REMARKS
GLASGOW        CLOUDY    35  30  82 W9        29.78S WCI  28
JORDAN           N/A     44  34  67 W15G23    29.83R
SIDNEY         CLOUDY    30  28  93 S9        29.80S WCI  22
WOLF POINT     CLOUDY    32  28  85 W5        29.79S
PLENTYWOOD       N/A     25  21  86 SE6       29.76F WCI  18
POPLAR           N/A     30  28  93 SW5       29.79R
$$

MTZ028>42-056>058-140000-
SOUTHCENTRAL AND SOUTHEAST MONTANA

CITY           SKY/WX    TMP DP  RH WIND       PRES   REMARKS
BAKER          LGT RAIN  34  31  88 W10       29.83S WCI  26
BILLINGS       MOSUNNY   49  17  28 W28G43    29.95R
LIVINGSTON     PTSUNNY   42  24  49 SW16      30.06R
MILES CITY     CLOUDY    43  41  93 W16       29.84S
FORSYTH          N/A     45  37  76 W9        29.86F
LAUREL           N/A     47  20  34 W26       29.95R
ROUNDUP          N/A     47  20  34 W24       29.86R
$$

REGIONAL REPORTS...DAKOTAS

CITY           SKY/WX    TMP DP  RH WIND       PRES   REMARKS
WILLISTON      HVY SNOW  20  17  88 SE8       29.81S VSB 1/4 WCI  10
MINOT          LGT SNOW  18   9  68 SE14      29.89F VSB 3/4 WCI   4
DICKINSON      CLOUDY    21  17  84 S14       29.80S WCI   8
BEACH          CLOUDY    34  34 100 W12G17    29.83S WCI  25
CROSBY         LGT SNOW  18  16  93 SE10      29.82F VSB 1   WCI   6
TIOGA          HVY SNOW  14  14 100 SE14      29.85S VSB 1/4 WCI  -1
WATFORD CITY   CLOUDY    23  19  86 S9        29.81R FOG     WCI  13
BISMARCK       LGT SNOW  18  11  74 SE18      29.96F WCI   2
GRAND FORKS    CLOUDY    10  -1  61 SE21      30.23F WCI  -9
FARGO          CLOUDY    13   0  56 SE21      30.23F WCI  -5
BUFFALO SD       N/A     32  29  88 SW10      29.77R WCI  24
RAPID CITY     SUNNY     50  33  52 S13       29.70F
$$

REGIONAL REPORTS...WYOMING/IDAHO/WASHINGTON

CITY           SKY/WX    TMP DP  RH WIND       PRES   REMARKS
GILLETTE       HVY SNOW  33  31  92 NW21G33   29.92R VSB 1/4 WCI  21
SHERIDAN       CLOUDY    37  31  78 NW10      29.94R WCI  30
BUFFALO WY     CLOUDY    37  26  64 NW17G28   29.90S WCI  27
CODY           CLOUDY    43  14  31 W18G30    30.00R
YELLOWSTONE LA   N/A     28   8  43 W9G25     30.11R WCI  19
IDAHO FALLS    PTSUNNY   35  30  82 SW17      30.24R WCI  25
SALMON         CLOUDY    39  21  48 NE10      30.17F
BOISE          SUNNY     51  26  37 N8        30.27F
SPOKANE        CLOUDY    43  32  65 SW16      30.16F
$$

REGIONAL REPORTS...ALBERTA

CITY           SKY/WX    TMP DP  RH WIND       PRES   REMARKS
EDMONTON       SUNNY     41  27  56 W8        29.76S
CALGARY        MOSUNNY   45  30  57 S6        29.82S
LETHBRIDGE     MOSUNNY   48  21  34 W29G40    29.88S
MEDICINE HAT   MOSUNNY   46  32  57 W16       29.88R
WATERTON GATE    N/A     39  23  52 SW14G21     N/A  WCI  31
MILK RIVER       N/A     46  21  36 W28G33      N/A
$$

REGIONAL REPORTS...SASKATCHEWAN

CITY           SKY/WX    TMP DP  RH WIND       PRES   REMARKS
SWIFT CURRENT  LGT SNOW  23  23 100 W20       29.77R WCI   8
REGINA         CLOUDY    21  16  79 SE15G21   29.76R WCI   8
SASKATOON      LGT SNOW  19  18  93 NW3       29.80R
VAL MARIE        N/A     36  32  87 NW26G33     N/A  WCI  23
ROCKGLEN         N/A     28  28 100 W13G20      N/A  WCI  18
ASSINIBOIA       N/A     39  30  70 W13         N/A  WCI  32
$$



USA.gov is the U.S. government's official web portal to all federal, state and local government web resources and services.